COSMOS 1833

Last updated on Thu Jul 03 2025 00:02:14 GMT+0000 (Coordinated Universal Time)

1 17589U 87027A 25183.54501447 .00000143 00000+0 10213-3 0 9990 2 17589 70.9152 131.7988 0024941 219.6322 140.2976 14.13011630974973
UTC large
Height (km)
Speed (km/s)
/
Latitude / Longitude
Inclination (degrees)
Orbital Period (minutes)
Azimuth
Elevation
Range (km)
Doppler Factor

Next 0 passes for location: London (51.5072 / 0.1276)

Sorry there are no passes over London.